Year,Month,Day,Hour,Minute,Value (Times are PST for temperature in C)
2015,01,28,00,00,7.10
2015,01,28,00,01,7.10
2015,01,28,00,02,7.10
2015,01,28,00,03,7.10
2015,01,28,00,04,7.10
2015,01,28,00,05,7.00
2015,01,28,00,06,7.00
2015,01,28,00,07,7.00
2015,01,28,00,08,7.10
2015,01,28,00,09,7.00
2015,01,28,00,10,7.00
2015,01,28,00,11,7.10
2015,01,28,00,12,7.10
2015,01,28,00,13,7.10
2015,01,28,00,14,7.10
2015,01,28,00,15,7.10
2015,01,28,00,16,7.10
2015,01,28,00,17,7.10
2015,01,28,00,18,7.00
2015,01,28,00,19,7.00
2015,01,28,00,20,7.00
2015,01,28,00,21,7.00
2015,01,28,00,22,7.00
2015,01,28,00,23,7.00
2015,01,28,00,24,7.00
2015,01,28,00,25,7.00
2015,01,28,00,26,7.00
2015,01,28,00,27,7.00
2015,01,28,00,28,7.00
2015,01,28,00,29,7.00
2015,01,28,00,30,7.00
2015,01,28,00,31,7.00
2015,01,28,00,32,7.00
2015,01,28,00,33,7.00
2015,01,28,00,34,7.00
2015,01,28,00,35,7.10
2015,01,28,00,36,7.10
2015,01,28,00,37,7.10
2015,01,28,00,38,7.10
2015,01,28,00,39,7.10
2015,01,28,00,40,7.10
2015,01,28,00,41,7.10
2015,01,28,00,42,7.10
2015,01,28,00,43,7.00
2015,01,28,00,44,7.00
2015,01,28,00,45,7.00
2015,01,28,00,46,7.00
2015,01,28,00,47,6.90
2015,01,28,00,48,6.90
2015,01,28,00,49,6.90
2015,01,28,00,50,6.80
2015,01,28,00,51,6.80
2015,01,28,00,52,6.80
2015,01,28,00,53,6.80
2015,01,28,00,54,6.80
2015,01,28,00,55,6.80
2015,01,28,00,56,6.80
2015,01,28,00,57,6.80
2015,01,28,00,58,6.80
2015,01,28,00,59,6.70
2015,01,28,01,00,6.70
2015,01,28,01,01,6.70
2015,01,28,01,02,6.70
2015,01,28,01,03,6.70
2015,01,28,01,04,6.70
2015,01,28,01,05,6.70
2015,01,28,01,06,6.70
2015,01,28,01,07,6.60
2015,01,28,01,08,6.60
2015,01,28,01,09,6.60
2015,01,28,01,10,6.60
2015,01,28,01,11,6.60
2015,01,28,01,12,6.60
2015,01,28,01,13,6.40
2015,01,28,01,14,6.40
2015,01,28,01,15,6.40
2015,01,28,01,16,6.60
2015,01,28,01,17,6.60
2015,01,28,01,18,6.60
2015,01,28,01,19,6.60
2015,01,28,01,20,6.40
2015,01,28,01,21,6.40
2015,01,28,01,22,6.40
2015,01,28,01,23,6.40
2015,01,28,01,24,6.40
2015,01,28,01,25,6.40
2015,01,28,01,26,6.40
2015,01,28,01,27,6.30
2015,01,28,01,28,6.30
2015,01,28,01,29,6.30
2015,01,28,01,30,6.30
2015,01,28,01,31,6.30
2015,01,28,01,32,6.30
2015,01,28,01,33,6.30
2015,01,28,01,34,6.30
2015,01,28,01,35,6.30
2015,01,28,01,36,6.30
2015,01,28,01,37,6.20
2015,01,28,01,38,6.20
2015,01,28,01,39,6.20
2015,01,28,01,40,6.20
2015,01,28,01,41,6.20
2015,01,28,01,42,6.20
2015,01,28,01,43,6.20
2015,01,28,01,44,6.10
2015,01,28,01,45,6.10
2015,01,28,01,46,6.10
2015,01,28,01,47,6.10
2015,01,28,01,48,6.00
2015,01,28,01,49,6.00
2015,01,28,01,50,6.00
2015,01,28,01,51,6.00
2015,01,28,01,52,6.00
2015,01,28,01,53,6.00
2015,01,28,01,54,6.00
2015,01,28,01,55,5.90
2015,01,28,01,56,5.90
2015,01,28,01,57,5.90
2015,01,28,01,58,5.90
2015,01,28,01,59,5.80
2015,01,28,02,00,5.80
2015,01,28,02,01,5.70
2015,01,28,02,02,5.70
2015,01,28,02,03,5.70
2015,01,28,02,04,5.70
2015,01,28,02,05,5.70
2015,01,28,02,06,5.70
2015,01,28,02,07,5.70
2015,01,28,02,08,5.70
2015,01,28,02,09,5.70
2015,01,28,02,10,5.70
2015,01,28,02,11,5.70
2015,01,28,02,12,5.70
2015,01,28,02,13,5.70
2015,01,28,02,14,5.70
2015,01,28,02,15,5.60
2015,01,28,02,16,5.60
2015,01,28,02,17,5.60
2015,01,28,02,18,5.60
2015,01,28,02,19,5.60
2015,01,28,02,20,5.60
2015,01,28,02,21,5.60
2015,01,28,02,22,5.60
2015,01,28,02,23,5.50
2015,01,28,02,24,5.60
2015,01,28,02,25,5.60
2015,01,28,02,26,5.70
2015,01,28,02,27,5.70
2015,01,28,02,28,5.70
2015,01,28,02,29,5.70
2015,01,28,02,30,5.70
2015,01,28,02,31,5.70
2015,01,28,02,32,5.70
2015,01,28,02,33,5.70
2015,01,28,02,34,5.70
2015,01,28,02,35,5.70
2015,01,28,02,36,5.70
2015,01,28,02,37,5.70
2015,01,28,02,38,5.70
2015,01,28,02,39,5.70
2015,01,28,02,40,5.70
2015,01,28,02,41,5.70
2015,01,28,02,42,5.70
2015,01,28,02,43,5.80
2015,01,28,02,44,5.80
2015,01,28,02,45,5.80
2015,01,28,02,46,5.80
2015,01,28,02,47,5.80
2015,01,28,02,48,5.80
2015,01,28,02,49,5.70
2015,01,28,02,50,5.70
2015,01,28,02,51,5.70
2015,01,28,02,52,5.70
2015,01,28,02,53,5.70
2015,01,28,02,54,5.70
2015,01,28,02,55,5.70
2015,01,28,02,56,5.70
2015,01,28,02,57,5.70
2015,01,28,02,58,5.70
2015,01,28,02,59,5.70
2015,01,28,03,00,5.70
2015,01,28,03,01,5.70
2015,01,28,03,02,5.70
2015,01,28,03,03,5.70
2015,01,28,03,04,5.60
2015,01,28,03,05,5.60
2015,01,28,03,06,5.60
2015,01,28,03,07,5.50
2015,01,28,03,08,5.50
2015,01,28,03,09,5.50
2015,01,28,03,10,5.50
2015,01,28,03,11,5.50
2015,01,28,03,12,5.50
2015,01,28,03,13,5.50
2015,01,28,03,14,5.40
2015,01,28,03,15,5.40
2015,01,28,03,16,5.40
2015,01,28,03,17,5.40
2015,01,28,03,18,5.40
2015,01,28,03,19,5.40
2015,01,28,03,20,5.30
2015,01,28,03,21,5.30
2015,01,28,03,22,5.30
2015,01,28,03,23,5.30
2015,01,28,03,24,5.30
2015,01,28,03,25,5.30
2015,01,28,03,26,5.30
2015,01,28,03,27,5.30
2015,01,28,03,28,5.30
2015,01,28,03,29,5.30
2015,01,28,03,30,5.30
2015,01,28,03,31,5.30
2015,01,28,03,32,5.30
2015,01,28,03,33,5.30
2015,01,28,03,34,5.30
2015,01,28,03,35,5.20
2015,01,28,03,36,5.20
2015,01,28,03,37,5.20
2015,01,28,03,38,5.20
2015,01,28,03,39,5.10
2015,01,28,03,40,5.10
2015,01,28,03,41,5.10
2015,01,28,03,42,5.10
2015,01,28,03,43,5.10
2015,01,28,03,44,5.10
2015,01,28,03,45,5.10
2015,01,28,03,46,4.90
2015,01,28,03,47,4.90
2015,01,28,03,48,4.90
2015,01,28,03,49,4.90
2015,01,28,03,50,4.80
2015,01,28,03,51,4.80
2015,01,28,03,52,4.80
2015,01,28,03,53,4.80
2015,01,28,03,54,4.80
2015,01,28,03,55,4.70
2015,01,28,03,56,4.70
2015,01,28,03,57,4.70
2015,01,28,03,58,4.60
2015,01,28,03,59,4.60
2015,01,28,04,00,4.60
2015,01,28,04,01,4.60
2015,01,28,04,02,4.60
2015,01,28,04,03,4.50
2015,01,28,04,04,4.50
2015,01,28,04,05,4.40
2015,01,28,04,06,4.40
2015,01,28,04,07,4.40
2015,01,28,04,08,4.30
2015,01,28,04,09,4.30
2015,01,28,04,10,4.20
2015,01,28,04,11,4.20
2015,01,28,04,12,4.20
2015,01,28,04,13,4.20
2015,01,28,04,14,4.20
2015,01,28,04,15,4.20
2015,01,28,04,16,4.10
2015,01,28,04,17,4.10
2015,01,28,04,18,4.10
2015,01,28,04,19,4.10
2015,01,28,04,20,4.10
2015,01,28,04,21,4.00
2015,01,28,04,22,4.00
2015,01,28,04,23,4.00
2015,01,28,04,24,4.00
2015,01,28,04,25,4.00
2015,01,28,04,26,3.90
2015,01,28,04,27,3.90
2015,01,28,04,28,3.90
2015,01,28,04,29,3.90
2015,01,28,04,30,3.90
2015,01,28,04,31,3.80
2015,01,28,04,32,3.80
2015,01,28,04,33,3.80
2015,01,28,04,34,3.80
2015,01,28,04,35,3.80
2015,01,28,04,36,3.80
2015,01,28,04,37,3.80
2015,01,28,04,38,3.80
2015,01,28,04,39,3.80
2015,01,28,04,40,3.80
2015,01,28,04,41,3.80
2015,01,28,04,42,3.80
2015,01,28,04,43,3.70
2015,01,28,04,44,3.70
2015,01,28,04,45,3.70
2015,01,28,04,46,3.70
2015,01,28,04,47,3.70
2015,01,28,04,48,3.70
2015,01,28,04,49,3.60
2015,01,28,04,50,3.60
2015,01,28,04,51,3.60
2015,01,28,04,52,3.60
2015,01,28,04,53,3.60
2015,01,28,04,54,3.60
2015,01,28,04,55,3.60
2015,01,28,04,56,3.60
2015,01,28,04,57,3.60
2015,01,28,04,58,3.60
2015,01,28,04,59,3.70
2015,01,28,05,00,3.70
2015,01,28,05,01,3.70
2015,01,28,05,02,3.60
2015,01,28,05,03,3.60
2015,01,28,05,04,3.60
2015,01,28,05,05,3.60
2015,01,28,05,06,3.60
2015,01,28,05,07,3.60
2015,01,28,05,08,3.60
2015,01,28,05,09,3.60
2015,01,28,05,10,3.50
2015,01,28,05,11,3.50
2015,01,28,05,12,3.50
2015,01,28,05,13,3.50
2015,01,28,05,14,3.50
2015,01,28,05,15,3.50
2015,01,28,05,16,3.50
2015,01,28,05,17,3.50
2015,01,28,05,18,3.50
2015,01,28,05,19,3.50
2015,01,28,05,20,3.50
2015,01,28,05,21,3.50
2015,01,28,05,22,3.50
2015,01,28,05,23,3.50
2015,01,28,05,24,3.50
2015,01,28,05,25,3.50
2015,01,28,05,26,3.50
2015,01,28,05,27,3.50
2015,01,28,05,28,3.50
2015,01,28,05,29,3.50
2015,01,28,05,30,3.40
2015,01,28,05,31,3.40
2015,01,28,05,32,3.40
2015,01,28,05,33,3.40
2015,01,28,05,34,3.30
2015,01,28,05,35,3.30
2015,01,28,05,36,3.30
2015,01,28,05,37,3.30
2015,01,28,05,38,3.30
2015,01,28,05,39,3.30
2015,01,28,05,40,3.30
2015,01,28,05,41,3.30
2015,01,28,05,42,3.30
2015,01,28,05,43,3.30
2015,01,28,05,44,3.30
2015,01,28,05,45,3.30
2015,01,28,05,46,3.30
2015,01,28,05,47,3.30
2015,01,28,05,48,3.30
2015,01,28,05,49,3.30
2015,01,28,05,50,3.30
2015,01,28,05,51,3.30
2015,01,28,05,52,3.20
2015,01,28,05,53,3.20
2015,01,28,05,54,3.20
2015,01,28,05,55,3.20
2015,01,28,05,56,3.20
2015,01,28,05,57,3.20
2015,01,28,05,58,3.10
2015,01,28,05,59,3.10
2015,01,28,06,00,3.10
2015,01,28,06,01,3.10
2015,01,28,06,02,3.10
2015,01,28,06,03,3.10
2015,01,28,06,04,3.10
2015,01,28,06,05,3.10
2015,01,28,06,06,3.10
2015,01,28,06,07,3.10
2015,01,28,06,08,3.10
2015,01,28,06,09,3.10
2015,01,28,06,10,3.10
2015,01,28,06,11,3.10
2015,01,28,06,12,3.10
2015,01,28,06,13,3.10
2015,01,28,06,14,3.10
2015,01,28,06,15,3.10
2015,01,28,06,16,3.10
2015,01,28,06,17,3.10
2015,01,28,06,18,3.10
2015,01,28,06,19,3.10
2015,01,28,06,20,3.10
2015,01,28,06,21,2.90
2015,01,28,06,22,2.90
2015,01,28,06,23,2.90
2015,01,28,06,24,2.90
2015,01,28,06,25,2.90
2015,01,28,06,26,2.90
2015,01,28,06,27,2.90
2015,01,28,06,28,2.90
2015,01,28,06,29,2.90
2015,01,28,06,30,3.10
2015,01,28,06,31,2.90
2015,01,28,06,32,2.90
2015,01,28,06,33,2.90
2015,01,28,06,34,2.90
2015,01,28,06,35,2.90
2015,01,28,06,36,2.90
2015,01,28,06,37,2.90
2015,01,28,06,38,2.90
2015,01,28,06,39,2.90
2015,01,28,06,40,2.90
2015,01,28,06,41,2.90
2015,01,28,06,42,2.90
2015,01,28,06,43,2.90
2015,01,28,06,44,2.90
2015,01,28,06,45,2.90
2015,01,28,06,46,2.80
2015,01,28,06,47,2.90
2015,01,28,06,48,2.90
2015,01,28,06,49,2.90
2015,01,28,06,50,2.90
2015,01,28,06,51,2.90
2015,01,28,06,52,2.90
2015,01,28,06,53,2.90
2015,01,28,06,54,2.90
2015,01,28,06,55,2.90
2015,01,28,06,56,2.90
2015,01,28,06,57,2.90
2015,01,28,06,58,2.90
2015,01,28,06,59,2.90
2015,01,28,07,00,2.90
2015,01,28,07,01,2.90
2015,01,28,07,02,2.90
2015,01,28,07,03,2.90
2015,01,28,07,04,2.90
2015,01,28,07,05,2.90
2015,01,28,07,06,2.90
2015,01,28,07,07,2.90
2015,01,28,07,08,2.90
2015,01,28,07,09,2.90
2015,01,28,07,10,2.90
2015,01,28,07,11,2.90
2015,01,28,07,12,2.80
2015,01,28,07,13,2.80
2015,01,28,07,14,2.80
2015,01,28,07,15,2.80
2015,01,28,07,16,2.90
2015,01,28,07,17,2.90
2015,01,28,07,18,2.90
2015,01,28,07,19,2.90
2015,01,28,07,20,2.90
2015,01,28,07,21,2.90
2015,01,28,07,22,2.90
2015,01,28,07,23,2.90
2015,01,28,07,24,2.90
2015,01,28,07,25,2.90
2015,01,28,07,26,2.90
2015,01,28,07,27,2.90
2015,01,28,07,28,2.90
2015,01,28,07,29,2.90
2015,01,28,07,30,2.90
2015,01,28,07,31,2.90
2015,01,28,07,32,2.90
2015,01,28,07,33,2.90
2015,01,28,07,34,2.80
2015,01,28,07,35,2.80
2015,01,28,07,36,2.80
2015,01,28,07,37,2.80
2015,01,28,07,38,2.80
2015,01,28,07,39,2.80
2015,01,28,07,40,2.70
2015,01,28,07,41,2.70
2015,01,28,07,42,2.70
2015,01,28,07,43,2.70
2015,01,28,07,44,2.70
2015,01,28,07,45,2.70
2015,01,28,07,46,2.70
2015,01,28,07,47,2.70
2015,01,28,07,48,2.80
2015,01,28,07,49,2.80
2015,01,28,07,50,2.80
2015,01,28,07,51,2.80
2015,01,28,07,52,2.80
2015,01,28,07,53,2.80
2015,01,28,07,54,2.80
2015,01,28,07,55,2.80
2015,01,28,07,56,2.80
2015,01,28,07,57,2.80
2015,01,28,07,58,2.90
2015,01,28,07,59,2.90
2015,01,28,08,00,2.90
2015,01,28,08,01,2.90
2015,01,28,08,02,2.90
2015,01,28,08,03,2.90
2015,01,28,08,04,2.90
2015,01,28,08,05,2.90
2015,01,28,08,06,2.90
2015,01,28,08,07,2.90
2015,01,28,08,08,2.90
2015,01,28,08,09,2.90
2015,01,28,08,10,3.10
2015,01,28,08,11,3.10
2015,01,28,08,12,3.10
2015,01,28,08,13,3.10
2015,01,28,08,14,3.10
2015,01,28,08,15,3.10
2015,01,28,08,16,3.10
2015,01,28,08,17,3.10
2015,01,28,08,18,3.10
2015,01,28,08,19,3.10
2015,01,28,08,20,3.10
2015,01,28,08,21,3.20
2015,01,28,08,22,3.20
2015,01,28,08,23,3.20
2015,01,28,08,24,3.20
2015,01,28,08,25,3.20
2015,01,28,08,26,3.30
2015,01,28,08,27,3.30
2015,01,28,08,28,3.30
2015,01,28,08,29,3.30
2015,01,28,08,30,3.30
2015,01,28,08,31,3.30
2015,01,28,08,32,3.30
2015,01,28,08,33,3.30
2015,01,28,08,34,3.30
2015,01,28,08,35,3.30
2015,01,28,08,36,3.30
2015,01,28,08,37,3.30
2015,01,28,08,38,3.30
2015,01,28,08,39,3.30
2015,01,28,08,40,3.30
2015,01,28,08,41,3.30
2015,01,28,08,42,3.30
2015,01,28,08,43,3.30
2015,01,28,08,44,3.40
2015,01,28,08,45,3.40
2015,01,28,08,46,3.40
2015,01,28,08,47,3.40
2015,01,28,08,48,3.40
2015,01,28,08,49,3.40
2015,01,28,08,50,3.40
2015,01,28,08,51,3.40
2015,01,28,08,52,3.40
2015,01,28,08,53,3.40
2015,01,28,08,54,3.40
2015,01,28,08,55,3.40
2015,01,28,08,56,3.50
2015,01,28,08,57,3.50
2015,01,28,08,58,3.50
2015,01,28,08,59,3.50
2015,01,28,09,00,3.50
2015,01,28,09,01,3.50
2015,01,28,09,02,3.50
2015,01,28,09,03,3.50
2015,01,28,09,04,3.60
2015,01,28,09,05,3.60
2015,01,28,09,06,3.60
2015,01,28,09,07,3.60
2015,01,28,09,08,3.60
2015,01,28,09,09,3.70
2015,01,28,09,10,3.70
2015,01,28,09,11,3.70
2015,01,28,09,12,3.70
2015,01,28,09,13,3.80
2015,01,28,09,14,3.80
2015,01,28,09,15,3.80
2015,01,28,09,16,3.80
2015,01,28,09,17,3.80
2015,01,28,09,18,3.80
2015,01,28,09,19,3.80
2015,01,28,09,20,3.80
2015,01,28,09,21,3.80
2015,01,28,09,22,3.80
2015,01,28,09,23,3.80
2015,01,28,09,24,3.80
2015,01,28,09,25,3.80
2015,01,28,09,26,3.80
2015,01,28,09,27,3.80
2015,01,28,09,28,3.80
2015,01,28,09,29,3.90
2015,01,28,09,30,3.90
2015,01,28,09,31,3.90
2015,01,28,09,32,3.90
2015,01,28,09,33,4.00
2015,01,28,09,34,4.00
2015,01,28,09,35,4.00
2015,01,28,09,36,4.10
2015,01,28,09,37,4.10
2015,01,28,09,38,4.10
2015,01,28,09,39,4.10
2015,01,28,09,40,4.10
2015,01,28,09,41,4.10
2015,01,28,09,42,4.10
2015,01,28,09,43,4.10
2015,01,28,09,44,4.20
2015,01,28,09,45,4.20
2015,01,28,09,46,4.20
2015,01,28,09,47,4.20
2015,01,28,09,48,4.20
2015,01,28,09,49,4.20
2015,01,28,09,50,4.20
2015,01,28,09,51,4.20
2015,01,28,09,52,4.20
2015,01,28,09,53,4.20
2015,01,28,09,54,4.20
2015,01,28,09,55,4.20
2015,01,28,09,56,4.20
2015,01,28,09,57,4.20
2015,01,28,09,58,4.20
2015,01,28,09,59,4.20
2015,01,28,10,00,4.20
2015,01,28,10,01,4.20
2015,01,28,10,02,4.20
2015,01,28,10,03,4.20
2015,01,28,10,04,4.20
2015,01,28,10,05,4.20
2015,01,28,10,06,4.20
2015,01,28,10,07,4.10
2015,01,28,10,08,4.10
2015,01,28,10,09,4.10
2015,01,28,10,10,4.10
2015,01,28,10,11,4.10
2015,01,28,10,12,4.10
2015,01,28,10,13,4.10
2015,01,28,10,14,4.10
2015,01,28,10,15,4.10
2015,01,28,10,16,4.10
2015,01,28,10,17,4.10
2015,01,28,10,18,4.10
2015,01,28,10,19,4.10
2015,01,28,10,20,4.10
2015,01,28,10,21,4.20
2015,01,28,10,22,4.20
2015,01,28,10,23,4.20
2015,01,28,10,24,4.20
2015,01,28,10,25,4.20
2015,01,28,10,26,4.20
2015,01,28,10,27,4.30
2015,01,28,10,28,4.30
2015,01,28,10,29,4.30
2015,01,28,10,30,4.40
2015,01,28,10,31,4.40
2015,01,28,10,32,4.40
2015,01,28,10,33,4.50
2015,01,28,10,34,4.50
2015,01,28,10,35,4.60
2015,01,28,10,36,4.60
2015,01,28,10,37,4.60
2015,01,28,10,38,4.60
2015,01,28,10,39,4.70
2015,01,28,10,40,4.70
2015,01,28,10,41,4.80
2015,01,28,10,42,4.80
2015,01,28,10,43,4.80
2015,01,28,10,44,4.80
2015,01,28,10,45,4.90
2015,01,28,10,46,4.90
2015,01,28,10,47,4.90
2015,01,28,10,48,4.90
2015,01,28,10,49,4.90
2015,01,28,10,50,4.90
2015,01,28,10,51,4.90
2015,01,28,10,52,5.10
2015,01,28,10,53,5.10
2015,01,28,10,54,5.10
2015,01,28,10,55,5.10
2015,01,28,10,56,5.10
2015,01,28,10,57,5.20
2015,01,28,10,58,5.20
2015,01,28,10,59,5.20
2015,01,28,11,00,5.20
2015,01,28,11,01,5.30
2015,01,28,11,02,5.30
2015,01,28,11,03,5.30
2015,01,28,11,04,5.30
2015,01,28,11,05,5.30
2015,01,28,11,06,5.40
2015,01,28,11,07,5.40
2015,01,28,11,08,5.50
2015,01,28,11,09,5.50
2015,01,28,11,10,5.50
2015,01,28,11,11,5.60
2015,01,28,11,12,5.60
2015,01,28,11,13,5.70
2015,01,28,11,14,5.70
2015,01,28,11,15,5.70
2015,01,28,11,16,5.70
2015,01,28,11,17,5.70
2015,01,28,11,18,5.70
2015,01,28,11,19,5.70
2015,01,28,11,20,5.80
2015,01,28,11,21,5.80
2015,01,28,11,22,5.90
2015,01,28,11,23,5.90
2015,01,28,11,24,5.90
2015,01,28,11,25,6.00
2015,01,28,11,26,6.00
2015,01,28,11,27,6.00
2015,01,28,11,28,6.10
2015,01,28,11,29,6.10
2015,01,28,11,30,6.20
2015,01,28,11,31,6.20
2015,01,28,11,32,6.20
2015,01,28,11,33,6.20
2015,01,28,11,34,6.20
2015,01,28,11,35,6.20
2015,01,28,11,36,6.20
2015,01,28,11,37,6.20
2015,01,28,11,38,6.10
2015,01,28,11,39,6.10
2015,01,28,11,40,6.10
2015,01,28,11,41,6.20
2015,01,28,11,42,6.20
2015,01,28,11,43,6.20
2015,01,28,11,44,6.20
2015,01,28,11,45,6.20
2015,01,28,11,46,6.30
2015,01,28,11,47,6.30
2015,01,28,11,48,6.30
2015,01,28,11,49,6.30
2015,01,28,11,50,6.30
2015,01,28,11,51,6.40
2015,01,28,11,52,6.40
2015,01,28,11,53,6.40
2015,01,28,11,54,6.40
2015,01,28,11,55,6.40
2015,01,28,11,56,6.60
2015,01,28,11,57,6.60
2015,01,28,11,58,6.70
2015,01,28,11,59,6.80
2015,01,28,12,00,6.80
2015,01,28,12,01,6.90
2015,01,28,12,02,7.10
2015,01,28,12,03,7.20
2015,01,28,12,04,7.30
2015,01,28,12,05,7.30
2015,01,28,12,06,7.40
2015,01,28,12,07,7.50
2015,01,28,12,08,7.60
2015,01,28,12,09,7.70
2015,01,28,12,10,7.80
2015,01,28,12,11,7.80
2015,01,28,12,12,7.80
2015,01,28,12,13,7.80
2015,01,28,12,14,7.80
2015,01,28,12,15,7.90
2015,01,28,12,16,7.90
2015,01,28,12,17,7.90
2015,01,28,12,18,7.90
2015,01,28,12,19,7.80
2015,01,28,12,20,7.80
2015,01,28,12,21,7.80
2015,01,28,12,22,7.80
2015,01,28,12,23,7.80
2015,01,28,12,24,7.70
2015,01,28,12,25,7.60
2015,01,28,12,26,7.60
2015,01,28,12,27,7.60
2015,01,28,12,28,7.60
2015,01,28,12,29,7.70
2015,01,28,12,30,7.70
2015,01,28,12,31,7.70
2015,01,28,12,32,7.80
2015,01,28,12,33,7.80
2015,01,28,12,34,7.80
2015,01,28,12,35,7.80
2015,01,28,12,36,7.90
2015,01,28,12,37,7.90
2015,01,28,12,38,8.00
2015,01,28,12,39,8.10
2015,01,28,12,40,8.20
2015,01,28,12,41,8.20
2015,01,28,12,42,8.20
2015,01,28,12,43,8.30
2015,01,28,12,44,8.40
2015,01,28,12,45,8.50
2015,01,28,12,46,8.60
2015,01,28,12,47,8.70
2015,01,28,12,48,8.70
2015,01,28,12,49,8.80
2015,01,28,12,50,9.00
2015,01,28,12,51,9.10
2015,01,28,12,52,9.20
2015,01,28,12,53,9.20
2015,01,28,12,54,9.30
2015,01,28,12,55,9.30
2015,01,28,12,56,9.40
2015,01,28,12,57,9.50
2015,01,28,12,58,9.60
2015,01,28,12,59,9.70
2015,01,28,13,00,9.70
2015,01,28,13,01,9.80
2015,01,28,13,02,9.90
2015,01,28,13,03,9.90
2015,01,28,13,04,9.90
2015,01,28,13,05,10.10
2015,01,28,13,06,10.10
2015,01,28,13,07,10.10
2015,01,28,13,08,10.10
2015,01,28,13,09,10.20
2015,01,28,13,10,10.20
2015,01,28,13,11,10.20
2015,01,28,13,12,10.20
2015,01,28,13,13,10.20
2015,01,28,13,14,10.30
2015,01,28,13,15,10.30
2015,01,28,13,16,10.40
2015,01,28,13,17,10.40
2015,01,28,13,18,10.30
2015,01,28,13,19,10.30
2015,01,28,13,20,10.20
2015,01,28,13,21,10.30
2015,01,28,13,22,10.30
2015,01,28,13,23,10.20
2015,01,28,13,24,10.20
2015,01,28,13,25,10.10
2015,01,28,13,26,10.10
2015,01,28,13,27,9.90
2015,01,28,13,28,9.90
2015,01,28,13,29,9.90
2015,01,28,13,30,9.90
2015,01,28,13,31,9.90
2015,01,28,13,32,10.10
2015,01,28,13,33,10.10
2015,01,28,13,34,10.10
2015,01,28,13,35,10.10
2015,01,28,13,36,10.20
2015,01,28,13,37,10.20
2015,01,28,13,38,10.20
2015,01,28,13,39,10.20
2015,01,28,13,40,10.20
2015,01,28,13,41,10.30
2015,01,28,13,42,10.20
2015,01,28,13,43,10.20
2015,01,28,13,44,10.20
2015,01,28,13,45,10.10
2015,01,28,13,46,10.10
2015,01,28,13,47,10.10
2015,01,28,13,48,10.10
2015,01,28,13,49,10.20
2015,01,28,13,50,10.20
2015,01,28,13,51,10.20
2015,01,28,13,52,10.20
2015,01,28,13,53,10.20
2015,01,28,13,54,10.20
2015,01,28,13,55,10.30
2015,01,28,13,56,10.30
2015,01,28,13,57,10.40
2015,01,28,13,58,10.30
2015,01,28,13,59,10.30
2015,01,28,14,00,10.30
2015,01,28,14,01,10.30
2015,01,28,14,02,10.30
2015,01,28,14,03,10.30
2015,01,28,14,04,10.30
2015,01,28,14,05,10.30
2015,01,28,14,06,10.40
2015,01,28,14,07,10.40
2015,01,28,14,08,10.60
2015,01,28,14,09,10.60
2015,01,28,14,10,10.60
2015,01,28,14,11,10.70
2015,01,28,14,12,10.80
2015,01,28,14,13,10.90
2015,01,28,14,14,10.90
2015,01,28,14,15,11.10
2015,01,28,14,16,11.10
2015,01,28,14,17,11.10
2015,01,28,14,18,11.10
2015,01,28,14,19,11.10
2015,01,28,14,20,11.10
2015,01,28,14,21,11.10
2015,01,28,14,22,11.20
2015,01,28,14,23,11.20
2015,01,28,14,24,11.20
2015,01,28,14,25,11.20
2015,01,28,14,26,11.10
2015,01,28,14,27,11.10
2015,01,28,14,28,10.90
2015,01,28,14,29,10.90
2015,01,28,14,30,10.90
2015,01,28,14,31,10.80
2015,01,28,14,32,10.70
2015,01,28,14,33,10.60
2015,01,28,14,34,10.60
2015,01,28,14,35,10.40
2015,01,28,14,36,10.40
2015,01,28,14,37,10.40
2015,01,28,14,38,10.40
2015,01,28,14,39,10.40
2015,01,28,14,40,10.30
2015,01,28,14,41,10.30
2015,01,28,14,42,10.30
2015,01,28,14,43,10.30
2015,01,28,14,44,10.30
2015,01,28,14,45,10.30
2015,01,28,14,46,10.30
2015,01,28,14,47,10.30
2015,01,28,14,48,10.40
2015,01,28,14,49,10.40
2015,01,28,14,50,10.60
2015,01,28,14,51,10.60
2015,01,28,14,52,10.60
2015,01,28,14,53,10.70
2015,01,28,14,54,10.80
2015,01,28,14,55,10.80
2015,01,28,14,56,10.90
2015,01,28,14,57,10.90
2015,01,28,14,58,10.90
2015,01,28,14,59,10.90
2015,01,28,15,00,10.90
2015,01,28,15,01,10.90
2015,01,28,15,02,10.90
2015,01,28,15,03,10.90
2015,01,28,15,04,10.90
2015,01,28,15,05,11.10
2015,01,28,15,06,11.10
2015,01,28,15,07,11.10
2015,01,28,15,08,11.20
2015,01,28,15,09,11.20
2015,01,28,15,10,11.30
2015,01,28,15,11,11.30
2015,01,28,15,12,11.40
2015,01,28,15,13,11.40
2015,01,28,15,14,11.40
2015,01,28,15,15,11.40
2015,01,28,15,16,11.40
2015,01,28,15,17,11.40
2015,01,28,15,18,11.40
2015,01,28,15,19,11.40
2015,01,28,15,20,11.40
2015,01,28,15,21,11.30
2015,01,28,15,22,11.30
2015,01,28,15,23,11.30
2015,01,28,15,24,11.30
2015,01,28,15,25,11.30
2015,01,28,15,26,11.30
2015,01,28,15,27,11.20
2015,01,28,15,28,11.20
2015,01,28,15,29,11.10
2015,01,28,15,30,11.10
2015,01,28,15,31,10.90
2015,01,28,15,32,10.90
2015,01,28,15,33,10.80
2015,01,28,15,34,10.70
2015,01,28,15,35,10.70
2015,01,28,15,36,10.60
2015,01,28,15,37,10.60
2015,01,28,15,38,10.60
2015,01,28,15,39,10.60
2015,01,28,15,40,10.40
2015,01,28,15,41,10.40
2015,01,28,15,42,10.40
2015,01,28,15,43,10.40
2015,01,28,15,44,10.40
2015,01,28,15,45,10.40
2015,01,28,15,46,10.40
2015,01,28,15,47,10.40
2015,01,28,15,48,10.40
2015,01,28,15,49,10.40
2015,01,28,15,50,10.40
2015,01,28,15,51,10.40
2015,01,28,15,52,10.40
2015,01,28,15,53,10.40
2015,01,28,15,54,10.40
2015,01,28,15,55,10.40
2015,01,28,15,56,10.40
2015,01,28,15,57,10.40
2015,01,28,15,58,10.40
2015,01,28,15,59,10.40
2015,01,28,16,00,10.40
2015,01,28,16,01,10.40
2015,01,28,16,02,10.40
2015,01,28,16,03,10.40
2015,01,28,16,04,10.40
2015,01,28,16,05,10.40
2015,01,28,16,06,10.40
2015,01,28,16,07,10.40
2015,01,28,16,08,10.30
2015,01,28,16,09,10.30
2015,01,28,16,10,10.30
2015,01,28,16,11,10.30
2015,01,28,16,12,10.30
2015,01,28,16,13,10.30
2015,01,28,16,14,10.20
2015,01,28,16,15,10.20
2015,01,28,16,16,10.10
2015,01,28,16,17,9.90
2015,01,28,16,18,9.90
2015,01,28,16,19,9.70
2015,01,28,16,20,9.60
2015,01,28,16,21,9.40
2015,01,28,16,22,9.30
2015,01,28,16,23,9.20
2015,01,28,16,24,9.20
2015,01,28,16,25,9.10
2015,01,28,16,26,9.00
2015,01,28,16,27,8.90
2015,01,28,16,28,8.80
2015,01,28,16,29,8.70
2015,01,28,16,30,8.70
2015,01,28,16,31,8.60
2015,01,28,16,32,8.60
2015,01,28,16,33,8.50
2015,01,28,16,34,8.50
2015,01,28,16,35,8.40
2015,01,28,16,36,8.40
2015,01,28,16,37,8.40
2015,01,28,16,38,8.30
2015,01,28,16,39,8.30
2015,01,28,16,40,8.30
2015,01,28,16,41,8.30
2015,01,28,16,42,8.30
2015,01,28,16,43,8.20
2015,01,28,16,44,8.20
2015,01,28,16,45,8.20
2015,01,28,16,46,8.10
2015,01,28,16,47,8.10
2015,01,28,16,48,8.00
2015,01,28,16,49,8.00
2015,01,28,16,50,8.00
2015,01,28,16,51,7.90
2015,01,28,16,52,7.90
2015,01,28,16,53,7.90
2015,01,28,16,54,7.90
2015,01,28,16,55,7.80
2015,01,28,16,56,7.80
2015,01,28,16,57,7.80
2015,01,28,16,58,7.70
2015,01,28,16,59,7.60
2015,01,28,17,00,7.50
2015,01,28,17,01,7.40
2015,01,28,17,02,7.40
2015,01,28,17,03,7.40
2015,01,28,17,04,7.30
2015,01,28,17,05,7.30
2015,01,28,17,06,7.20
2015,01,28,17,07,7.10
2015,01,28,17,08,7.10
2015,01,28,17,09,7.00
2015,01,28,17,10,7.00
2015,01,28,17,11,7.00
2015,01,28,17,12,6.90
2015,01,28,17,13,6.90
2015,01,28,17,14,6.80
2015,01,28,17,15,6.80
2015,01,28,17,16,6.80
2015,01,28,17,17,6.80
2015,01,28,17,18,6.70
2015,01,28,17,19,6.70
2015,01,28,17,20,6.60
2015,01,28,17,21,6.60
2015,01,28,17,22,6.60
2015,01,28,17,23,6.60
2015,01,28,17,24,6.60
2015,01,28,17,25,6.40
2015,01,28,17,26,6.40
2015,01,28,17,27,6.40
2015,01,28,17,28,6.40
2015,01,28,17,29,6.30
2015,01,28,17,30,6.30
2015,01,28,17,31,6.20
2015,01,28,17,32,6.20
2015,01,28,17,33,6.20
2015,01,28,17,34,6.20
2015,01,28,17,35,6.20
2015,01,28,17,36,6.10
2015,01,28,17,37,6.10
2015,01,28,17,38,6.10
2015,01,28,17,39,6.00
2015,01,28,17,40,6.00
2015,01,28,17,41,6.00
2015,01,28,17,42,5.90
2015,01,28,17,43,5.90
2015,01,28,17,44,5.90
2015,01,28,17,45,5.90
2015,01,28,17,46,5.90
2015,01,28,17,47,5.80
2015,01,28,17,48,5.80
2015,01,28,17,49,5.80
2015,01,28,17,50,5.70
2015,01,28,17,51,5.70
2015,01,28,17,52,5.70
2015,01,28,17,53,5.70
2015,01,28,17,54,5.70
2015,01,28,17,55,5.70
2015,01,28,17,56,5.60
2015,01,28,17,57,5.60
2015,01,28,17,58,5.60